• In Russia
  • List of Countries
  • For 7 days
  • Water Temperature
  • Weather Map
  • Weather Widgets
  • user-avatar
    Login

    Hourly Weather Darwin

    Today, 25 August, Sunday

    Time Temperature Precipitation Wind Pressure Humidity
    00:00 +21°C° 0 mm 3 mps 760 mmHg 76%
    01:00 +21°C° 0 mm 3 mps 760 mmHg 80%
    02:00 +21°C° 0 mm 3 mps 760 mmHg 85%
    03:00 +20°C° 0 mm 3 mps 760 mmHg 88%
    04:00 +20°C° 0 mm 3 mps 760 mmHg 90%
    05:00 +20°C° 0 mm 3 mps 760 mmHg 93%
    06:00 +20°C° 0 mm 3 mps 760 mmHg 95%
    07:00 +22°C° 0 mm 3 mps 761 mmHg 85%
    08:00 +25°C° 0 mm 3 mps 761 mmHg 75%
    09:00 +28°C° 0 mm 2 mps 761 mmHg 65%
    10:00 +30°C° 0 mm 2 mps 761 mmHg 52%
    11:00 +32°C° 0 mm 2 mps 760 mmHg 39%
    12:00 +36°C° 0 mm 2 mps 760 mmHg 26%
    13:00 +36°C° 0 mm 3 mps 759 mmHg 28%
    14:00 +35°C° 0 mm 4 mps 758 mmHg 30%
    15:00 +35°C° 0 mm 4 mps 757 mmHg 32%
    16:00 +33°C° 0 mm 4 mps 757 mmHg 40%
    17:00 +30°C° 0 mm 3 mps 757 mmHg 48%
    18:00 +27°C° 0 mm 2 mps 757 mmHg 57%
    19:00 +26°C° 0 mm 2 mps 758 mmHg 65%
    20:00 +24°C° 0 mm 2 mps 759 mmHg 73%
    21:00 +21°C° 0 mm 2 mps 759 mmHg 81%
    22:00 +21°C° 0 mm 2 mps 759 mmHg 83%
    23:00 +22°C° 0 mm 1 mps 760 mmHg 86%

    Tomorrow, 26 August, Monday

    Time Temperature Precipitation Wind Pressure Humidity
    00:00 +22°C° 0 mm 1 mps 760 mmHg 88%
    01:00 +21°C° 0 mm 2 mps 760 mmHg 88%
    02:00 +21°C° 0 mm 2 mps 759 mmHg 88%
    03:00 +21°C° 0 mm 3 mps 759 mmHg 88%
    04:00 +21°C° 0 mm 3 mps 759 mmHg 89%
    05:00 +20°C° 0 mm 2 mps 760 mmHg 91%
    06:00 +20°C° 0 mm 2 mps 760 mmHg 93%
    07:00 +22°C° 0 mm 3 mps 760 mmHg 81%
    08:00 +25°C° 0 mm 3 mps 760 mmHg 68%
    09:00 +28°C° 0 mm 3 mps 761 mmHg 56%
    10:00 +30°C° 0 mm 3 mps 760 mmHg 45%
    11:00 +33°C° 0 mm 3 mps 760 mmHg 34%
    12:00 +35°C° 0 mm 3 mps 759 mmHg 24%
    13:00 +36°C° 0 mm 3 mps 758 mmHg 23%
    14:00 +36°C° 0 mm 4 mps 758 mmHg 23%
    15:00 +37°C° 0 mm 4 mps 757 mmHg 23%
    16:00 +34°C° 0 mm 4 mps 757 mmHg 31%
    17:00 +30°C° 0 mm 3 mps 757 mmHg 39%
    18:00 +27°C° 0 mm 2 mps 757 mmHg 47%
    19:00 +26°C° 0 mm 2 mps 758 mmHg 55%
    20:00 +24°C° 0 mm 2 mps 759 mmHg 63%
    21:00 +21°C° 0 mm 2 mps 759 mmHg 72%
    22:00 +21°C° 0 mm 2 mps 760 mmHg 74%
    23:00 +21°C° 0 mm 2 mps 760 mmHg 77%

    Day after tomorrow, 27 August, Tuesday

    Time Temperature Precipitation Wind Pressure Humidity
    00:00 +21°C° 0 mm 2 mps 760 mmHg 79%
    01:00 +22°C° 0 mm 1 mps 760 mmHg 81%
    02:00 +22°C° 0 mm 1 mps 760 mmHg 82%
    03:00 +22°C° 0 mm 1 mps 759 mmHg 84%
    04:00 +21°C° 0 mm 1 mps 760 mmHg 86%
    05:00 +20°C° 0 mm 2 mps 760 mmHg 89%
    06:00 +20°C° 0 mm 2 mps 761 mmHg 91%
    07:00 +23°C° 0 mm 2 mps 761 mmHg 79%
    08:00 +25°C° 0 mm 3 mps 761 mmHg 66%
    09:00 +28°C° 0 mm 3 mps 762 mmHg 54%
    10:00 +30°C° 0 mm 3 mps 761 mmHg 41%
    11:00 +34°C° 0 mm 3 mps 760 mmHg 29%
    12:00 +36°C° 0 mm 4 mps 760 mmHg 17%
    13:00 +37°C° 0 mm 4 mps 759 mmHg 16%
    14:00 +38°C° 0 mm 4 mps 758 mmHg 16%
    15:00 +40°C° 0 mm 4 mps 757 mmHg 15%
    16:00 +35°C° 0 mm 3 mps 758 mmHg 25%
    17:00 +31°C° 0 mm 3 mps 758 mmHg 34%
    18:00 +28°C° 0 mm 2 mps 758 mmHg 44%
    19:00 +26°C° 0 mm 2 mps 759 mmHg 51%
    20:00 +25°C° 0 mm 2 mps 759 mmHg 58%
    21:00 +23°C° 0 mm 2 mps 760 mmHg 66%
    22:00 +23°C° 0 mm 2 mps 760 mmHg 67%
    23:00 +21°C° 0 mm 2 mps 761 mmHg 69%

    28 August, Wednesday

    Time Temperature Precipitation Wind Pressure Humidity
    00:00 +21°C° 0 mm 2 mps 761 mmHg 71%
    01:00 +20°C° 0 mm 2 mps 761 mmHg 72%
    02:00 +20°C° 0 mm 2 mps 761 mmHg 74%
    03:00 +20°C° 0 mm 2 mps 760 mmHg 75%
    04:00 +19°C° 0 mm 3 mps 761 mmHg 68%
    05:00 +18°C° 0 mm 4 mps 761 mmHg 61%
    06:00 +17°C° 0 mm 4 mps 762 mmHg 54%
    07:00 +21°C° 0 mm 5 mps 762 mmHg 44%
    08:00 +24°C° 0 mm 6 mps 762 mmHg 34%
    09:00 +28°C° 0 mm 7 mps 762 mmHg 24%
    10:00 +30°C° 0 mm 6 mps 762 mmHg 20%
    11:00 +34°C° 0 mm 6 mps 761 mmHg 17%
    12:00 +36°C° 0 mm 5 mps 761 mmHg 14%
    13:00 +37°C° 0 mm 4 mps 760 mmHg 12%
    14:00 +38°C° 0 mm 4 mps 759 mmHg 11%
    15:00 +39°C° 0 mm 3 mps 758 mmHg 10%
    16:00 +36°C° 0 mm 3 mps 758 mmHg 14%
    17:00 +34°C° 0 mm 2 mps 758 mmHg 18%
    18:00 +30°C° 0 mm 1 mps 759 mmHg 22%
    19:00 +28°C° 0 mm 2 mps 759 mmHg 29%
    20:00 +25°C° 0 mm 2 mps 760 mmHg 36%
    21:00 +23°C° 0 mm 2 mps 760 mmHg 43%
    22:00 +23°C° 0 mm 2 mps 761 mmHg 45%
    23:00 +22°C° 0 mm 1 mps 761 mmHg 47%

    29 August, Thursday

    Time Temperature Precipitation Wind Pressure Humidity
    00:00 +22°C° 0 mm 1 mps 761 mmHg 49%
    01:00 +20°C° 0 mm 3 mps 761 mmHg 44%
    02:00 +19°C° 0 mm 4 mps 760 mmHg 39%
    03:00 +19°C° 0 mm 5 mps 760 mmHg 34%
    04:00 +17°C° 0 mm 5 mps 761 mmHg 35%
    05:00 +16°C° 0 mm 5 mps 761 mmHg 36%
    06:00 +15°C° 0 mm 6 mps 761 mmHg 36%
    07:00 +19°C° 0 mm 6 mps 762 mmHg 30%
    08:00 +22°C° 0 mm 7 mps 762 mmHg 24%
    09:00 +26°C° 0 mm 7 mps 762 mmHg 17%
    10:00 +28°C° 0 mm 6 mps 762 mmHg 15%
    11:00 +32°C° 0 mm 5 mps 761 mmHg 12%
    12:00 +34°C° 0 mm 3 mps 761 mmHg 10%
    13:00 +35°C° 0 mm 3 mps 760 mmHg 10%
    14:00 +36°C° 0 mm 3 mps 759 mmHg 11%
    15:00 +37°C° 0 mm 3 mps 758 mmHg 11%
    16:00 +33°C° 0 mm 3 mps 758 mmHg 18%
    17:00 +29°C° 0 mm 3 mps 758 mmHg 25%
    18:00 +26°C° 0 mm 4 mps 758 mmHg 32%
    19:00 +25°C° 0 mm 4 mps 759 mmHg 38%
    20:00 +22°C° 0 mm 4 mps 759 mmHg 44%
    21:00 +20°C° 0 mm 4 mps 760 mmHg 49%
    22:00 +19°C° 0 mm 3 mps 760 mmHg 52%
    23:00 +18°C° 0 mm 2 mps 760 mmHg 54%

    30 August, Friday

    Time Temperature Precipitation Wind Pressure Humidity
    00:00 +18°C° 0 mm 1 mps 760 mmHg 57%
    01:00 +18°C° 0 mm 1 mps 760 mmHg 54%
    02:00 +16°C° 0 mm 2 mps 760 mmHg 52%
    03:00 +16°C° 0 mm 2 mps 759 mmHg 49%
    04:00 +16°C° 0 mm 2 mps 759 mmHg 52%
    05:00 +16°C° 0 mm 2 mps 760 mmHg 55%
    06:00 +17°C° 0 mm 2 mps 760 mmHg 59%
    07:00 +20°C° 0 mm 3 mps 760 mmHg 49%
    08:00 +24°C° 0 mm 3 mps 761 mmHg 39%
    09:00 +27°C° 0 mm 4 mps 761 mmHg 29%
    10:00 +29°C° 0 mm 4 mps 761 mmHg 24%
    11:00 +32°C° 0 mm 4 mps 760 mmHg 18%
    12:00 +35°C° 0 mm 3 mps 759 mmHg 13%
    13:00 +35°C° 0 mm 4 mps 759 mmHg 13%
    14:00 +36°C° 0 mm 4 mps 758 mmHg 14%
    15:00 +36°C° 0 mm 4 mps 757 mmHg 14%
    16:00 +34°C° 0 mm 4 mps 757 mmHg 21%
    17:00 +30°C° 0 mm 3 mps 757 mmHg 28%
    18:00 +27°C° 0 mm 3 mps 757 mmHg 35%
    19:00 +25°C° 0 mm 3 mps 758 mmHg 41%
    20:00 +22°C° 0 mm 3 mps 759 mmHg 46%
    21:00 +20°C° 0 mm 3 mps 759 mmHg 52%
    22:00 +20°C° 0 mm 2 mps 759 mmHg 57%
    23:00 +20°C° 0 mm 1 mps 760 mmHg 61%
    Show more